MIDAS 4 DEB, 42664

Orbit data source: Space-Track

MIDAS 4 DEB, 42664 is space debris in LEO originally from a launch on Sat, 21 Oct 1961 UTC launched from the Air Force Western Test Range (AFWTR). Debris objects in space refer to the collection of defunct objects orbiting the Earth. Examples of debris include non-operational satellites, rocket bodies, and fragments generated from explosions, collisions, or faulty payload assembly.

Loading next visibility...
Identifier
42664, 1961-028K
Orbit
LEO
Country
Flag of USUS
Related business
Manufacturer
Unknown
Mission
Spacecraft
Bus & Motor
Unknown
Mass
Unknown
Launch date (UTC)
1961-10-21 (65 years ago)
Launch vehicle
Unknown
Launch site
Air Force Western Test Range (AFWTR)
Object type
Payload
Rocket body
Debris
Shape & HBR
Unknown shape, 1.1 m
Radar Cross Section
Medium (>0.1 m² and <1 m²)

Expand to show TLE details & history
Last TLE update: 1 month ago

TLE from 1 month ago
0 MIDAS 4 DEB
1 42664U 61028K   26144.66556090  .00000069  00000-0  30911-1 0  9993
2 42664  95.8511 232.1451 0353936 247.0178 109.2971  8.69062930348411
Epoch: 2026-05-24T15:58Z
TLE epoch observation values (Epoch: 2026-05-24T15:58:24.461Z)
Latitude
0.00004°
Longitude
110.27873°
Altitude
3,744.986 km
Speed
6.235 km/s
True Right ascension
15h 28m 34s
True Declination
0° 00' 00"
Sunlit
Object was in full shadow at epoch
Visualization orbit readout
Latitude
Unknown
Longitude
Unknown
Altitude
Unknown
Speed
Unknown
Apparent Right ascension
Unknown
Apparent Declination
Unknown
Sunlit
N/A
Visualization observer readout
Local Sidereal Time
21:41:45
Azimuth
Unknown
Elevation
Unknown
Doppler factor
Unknown
Orbital elements
Apogee altitude
3,966.466 km
Perigee altitude
3,259.232 km
Semi-major axis
9,990.986 km
Eccentricity
0.03539
Inclination
95.8511°
RAAN
232.1451°
Arg. of periapsis
247.0178°
True anomaly
113.06713°
Mean anomaly
109.2971°
Eccentric anomaly
111.18792°
Mean motion
2.17335 °/min
Orbital period
165.64 mins
BSTAR
0.030911
Loading maneuver chart data...
Computing Atmospheric mass density...
Loading historical data...
Loading historical data...
Loading historical data...
Loading historical data...
Loading historical data...
Loading historical data...
Loading historical data...

Documentation

Showing up to 5 results
|